CAPE
0 255 1500 1425 856 977 1232 1287 968 979 995 1000 923 943 934 769 705 593 721 866 972 795 455 364 421 274 269 334 458 725 884 807
0 0 2 1254 1290 1359 1661 1773 1806 1608 1301 1157 1023 1049 1032 939 831 774 767 856 994 888 613 544 569 355 323 444 576 745 895 965
0 0 0 0 0 751 1446 1761 2090 2067 1773 1528 1323 1198 1188 1181 1123 1000 854 859 944 903 697 565 631 460 449 520 558 725 691 607
0 0 0 0 0 0 0 158 1035 2094 2063 1796 1615 1524 1480 1371 1275 1171 1063 918 876 875 739 630 677 613 477 608 720 813 541 58
0 0 0 0 0 0 0 0 0 230 1558 1179 1496 1411 1502 1671 1547 1351 1255 1049 886 847 779 767 765 711 589 760 904 963 983 385
0 0 0 0 0 0 0 0 0 0 403 1217 1417 1461 1559 1609 1569 1483 1490 1235 959 832 839 806 822 910 838 917 916 1152 680 453
0 0 0 0 0 0 0 0 0 0 1 1047 1255 1323 1399 1295 1607 1616 1556 1289 1059 976 872 881 1030 1177 1008 1104 1240 981 797 743
0 0 0 0 0 0 0 0 0 0 0 191 975 1122 1162 1224 1372 1590 1413 1420 935 1049 1100 1178 1488 1428 1253 1376 1361 1164 990 390
0 0 0 0 0 0 0 0 0 9 282 502 906 1074 1212 1288 1388 1517 1517 1421 1008 983 1099 1496 1700 1545 1539 1498 1383 1185 296 4
0 0 0 0 0 0 0 0 0 125 713 1083 1214 1413 1534 1557 1581 1716 1786 1646 1334 1053 1029 1326 1619 1624 1206 419 124 10 0 0
0 0 0 0 0 0 0 0 0 0 280 884 1109 1316 1478 1692 1758 1823 1937 1670 1248 1593 1168 1260 1288 833 214 72 34 1 0 0
0 0 0 0 0 0 0 0 0 0 0 2 436 962 1350 1696 1778 1706 1696 1506 1484 1586 1041 1054 697 244 101 49 1 0 0 0
0 0 0 0 0 0 0 0 1 109 81 4 0 475 1233 1749 1810 1676 1548 1282 950 820 401 350 220 64 2 2 0 0 0 0
0 0 0 0 0 0 0 0 0 0 248 593 463 385 1022 1531 1721 1447 958 617 489 290 198 98 3 2 2 0 0 0 0 0
0 0 0 0 0 0 0 0 0 0 15 420 901 991 1155 1385 687 381 361 164 98 6 0 1 1 2 1 0 0 0 0 0
0 0 0 0 0 0 0 0 0 0 0 5 192 687 693 360 224 116 9 2 3 0 1 0 1 0 0 0 0 0 0 0
0 0 0 0 0 0 0 0 0 0 0 0 2 0 1 0 0 1 1 3 2 2 1 1 3 0 0 0 0 0 0 0
0 0 0 0 0 0 0 0 0 0 0 0 0 2 0 0 1 2 2 3 4 2 3 1 0 0 0 0 0 0 0 0
0 0 0 0 0 0 0 0 0 0 0 0 0 1 0 0 1 2 3 4 5 4 3 1 0 0 0 0 0 0 0 0
CIN
-0 -117 -100 -89 -89 -85 -119 -183 -250 -301 -290 -287 -253 -254 -261 -268 -261 -274 -235 -189 -137 -131 -133 -121 -105 -113 -91 -62 -24 -1 -0 -0
-0 -0 -1 -97 -86 -72 -86 -114 -162 -198 -256 -257 -259 -249 -246 -271 -272 -284 -262 -224 -162 -143 -134 -119 -106 -122 -98 -57 -21 -1 -0 -0
-0 -0 -0 -0 -0 -156 -116 -126 -135 -164 -166 -200 -187 -183 -197 -224 -248 -272 -290 -261 -216 -171 -155 -140 -116 -111 -96 -76 -52 -33 -22 -18
-0 -0 -0 -0 -0 -0 -0 -128 -143 -140 -180 -164 -164 -160 -163 -180 -232 -257 -281 -266 -242 -222 -190 -153 -120 -106 -103 -73 -48 -32 -54 -210
-0 -0 -0 -0 -0 -0 -0 -0 -0 -216 -198 -232 -221 -217 -177 -200 -230 -239 -241 -276 -267 -241 -219 -178 -150 -130 -114 -72 -45 -28 -10 -82
-0 -0 -0 -0 -0 -0 -0 -0 -0 -0 -239 -267 -235 -246 -225 -188 -229 -224 -222 -260 -291 -283 -255 -211 -159 -116 -104 -66 -59 -14 -47 -71
-0 -0 -0 -0 -0 -0 -0 -0 -0 -0 -15 -260 -280 -255 -249 -208 -199 -217 -220 -258 -304 -282 -263 -228 -157 -107 -96 -63 -34 -33 -22 -21
-0 -0 -0 -0 -0 -0 -0 -0 -0 -0 -0 -343 -295 -275 -282 -250 -233 -218 -238 -257 -377 -340 -254 -205 -121 -105 -89 -46 -14 -4 -5 -83
-0 -0 -0 -0 -0 -0 -0 -0 -0 -237 -183 -221 -240 -250 -242 -259 -238 -239 -244 -286 -394 -364 -285 -162 -109 -108 -69 -40 -12 -9 -163 -34
-0 -0 -0 -0 -0 -0 -0 -0 -0 -197 -142 -153 -184 -198 -200 -249 -254 -224 -212 -243 -323 -355 -313 -177 -99 -85 -108 -243 -334 -395 -0 -0
-0 -0 -0 -0 -0 -0 -0 -0 -0 -0 -202 -137 -150 -166 -171 -171 -191 -215 -206 -247 -335 -222 -248 -183 -129 -180 -342 -424 -436 -0 -0 -0
-0 -0 -0 -0 -0 -0 -0 -0 -0 -0 -0 -29 -187 -165 -171 -151 -165 -201 -215 -268 -240 -195 -245 -185 -230 -334 -420 -457 -0 -0 -0 -0
-0 -0 -0 -0 -0 -0 -0 -0 -18 -230 -260 -216 -0 -203 -166 -143 -179 -219 -231 -289 -325 -294 -341 -318 -346 -498 -24 -0 -0 -0 -0 -0
-0 -0 -0 -0 -0 -0 -0 -0 -0 -0 -176 -133 -199 -231 -153 -128 -141 -196 -325 -378 -380 -396 -410 -449 -96 -0 -0 -0 -0 -0 -0 -0
-0 -0 -0 -0 -0 -0 -0 -0 -0 -0 -147 -128 -86 -105 -103 -109 -248 -370 -364 -427 -455 -277 -0 -0 -0 -0 -0 -0 -0 -0 -0 -0
-0 -0 -0 -0 -0 -0 -0 -0 -0 -0 -0 -146 -197 -117 -115 -213 -313 -388 -127 -0 -0 -0 -0 -0 -0 -0 -0 -0 -0 -0 -0 -0
-0 -0 -0 -0 -0 -0 -0 -0 -0 -0 -0 -0 -0 -0 -0 -0 -0 -0 -0 -0 -0 -0 -0 -0 -0 -0 -0 -0 -0 -0 -0 -0
-0 -0 -0 -0 -0 -0 -0 -0 -0 -0 -0 -0 -0 -0 -0 -0 -0 -0 -0 -0 -0 -0 -0 -0 -0 -0 -0 -0 -0 -0 -0 -0
-0 -0 -0 -0 -0 -0 -0 -0 -0 -0 -0 -0 -0 -0 -0 -0 -0 -0 -0 -0 -0 -0 -0 -0 -0 -0 -0 -0 -0 -0 -0 -0
Wind_Speed
26 24 21 21 20 19 19 17 14 13 14 12 11 10 10 11 10 9 8 9 10 9 8 7 7 7 8 9 9 9 11 12
29 24 25 24 24 23 22 20 17 17 16 15 15 15 14 13 12 11 10 10 11 11 10 10 9 9 10 9 9 11 12 12
35 31 27 26 25 25 24 23 21 20 20 20 21 22 19 17 14 13 13 13 12 12 13 12 12 11 11 10 9 12 13 12
37 39 35 32 30 28 26 25 24 24 23 25 25 24 23 21 19 19 17 16 15 14 14 14 13 13 13 12 12 11 14 14
37 39 42 40 38 33 32 31 29 27 24 25 25 24 24 24 25 24 20 18 17 16 15 15 15 14 15 15 14 13 14 15
37 36 38 42 41 38 34 33 33 31 27 26 27 28 27 27 26 25 23 20 20 18 16 16 16 16 15 14 14 14 14 15
39 37 36 36 36 36 36 35 36 34 31 29 29 28 26 25 22 21 22 22 20 19 17 16 16 15 14 14 13 14 14 15
35 34 33 34 34 34 34 35 37 32 29 28 29 29 29 28 25 23 23 22 20 20 19 18 17 15 14 13 12 13 13 14
30 30 32 32 30 31 32 32 32 30 28 27 27 27 27 26 25 23 22 21 21 21 20 19 18 15 14 12 12 12 12 13
32 32 31 33 32 31 29 31 31 30 28 26 25 25 26 26 27 24 23 22 21 20 20 19 18 17 15 13 13 13 12 12
27 28 29 30 31 32 32 32 32 29 29 29 30 29 27 26 27 26 24 22 20 19 19 19 19 18 16 15 14 13 13 12
25 25 24 25 27 29 30 32 33 33 32 31 31 31 30 29 28 27 25 23 21 20 20 21 21 20 18 16 15 12 12 12
28 27 26 26 27 27 28 30 31 32 33 34 34 34 33 32 30 28 24 23 22 22 22 23 22 20 18 16 14 12 13 12
30 29 29 29 29 28 28 29 31 32 33 35 35 34 34 34 32 30 26 26 25 25 24 23 22 20 17 15 13 12 12 11
31 31 30 29 30 30 30 30 31 32 33 34 35 34 33 32 29 28 27 28 27 25 24 23 21 19 16 14 11 12 11 11
33 33 33 33 32 31 32 32 32 32 33 34 34 33 30 28 27 27 26 24 24 22 21 20 20 18 16 14 12 12 11 11
39 37 36 36 34 33 34 34 34 34 34 34 33 32 30 27 26 25 23 22 21 19 19 18 18 17 15 12 11 11 10 10
42 41 40 38 38 37 37 36 35 35 35 34 34 32 30 28 25 24 24 24 22 21 19 18 17 16 14 12 10 9 9 9
43 41 40 41 42 42 40 39 37 36 35 34 33 33 31 27 26 25 23 22 21 20 19 17 16 16 14 11 10 8 8 9
Wind_Direction
259 257 245 241 242 244 248 245 241 240 254 251 255 257 263 268 267 261 254 242 224 224 248 260 263 271 281 284 289 297 301 307
258 259 256 253 252 252 251 250 246 247 247 247 251 254 262 263 262 255 253 252 237 234 248 257 261 265 272 276 286 290 296 304
256 258 258 257 257 256 255 253 251 249 254 256 262 266 267 266 263 257 252 246 242 242 247 257 257 265 266 268 269 290 294 297
259 257 259 260 261 261 261 259 258 257 257 263 264 267 268 267 263 265 257 250 246 244 246 254 259 261 266 266 266 270 287 292
263 262 260 261 263 265 264 264 265 263 257 259 255 256 257 262 268 269 263 250 246 247 247 249 255 259 265 268 267 269 279 287
265 267 266 264 265 265 267 267 267 266 261 255 256 257 263 270 271 269 258 256 248 244 245 249 253 261 263 264 264 265 272 283
267 269 269 267 267 266 266 267 268 269 264 257 253 254 257 262 262 265 258 255 250 241 240 244 249 255 259 259 261 263 270 279
271 268 270 270 268 268 267 266 267 268 266 260 256 253 258 258 259 260 259 252 248 241 240 242 247 251 256 258 258 265 267 273
274 272 275 273 272 272 270 269 268 267 267 266 262 259 260 261 259 259 258 253 252 251 243 246 243 245 250 253 260 269 274 279
276 279 279 275 273 275 274 271 271 268 267 267 265 262 259 258 259 260 261 259 259 253 246 245 241 241 246 252 266 271 276 280
283 283 284 281 278 275 275 274 273 273 270 268 267 265 264 262 262 257 257 259 256 253 244 243 241 243 247 254 267 270 274 281
285 289 292 291 285 281 279 276 274 274 273 270 268 267 265 265 263 261 258 258 256 254 251 246 243 244 248 256 263 267 275 282
287 288 290 291 291 289 284 282 278 276 276 275 273 271 266 263 261 261 258 256 256 262 257 252 248 245 248 250 255 263 271 277
287 289 290 290 291 291 290 288 285 282 279 277 276 276 269 265 262 260 257 257 259 260 257 250 246 245 246 250 250 262 271 274
286 286 289 291 291 289 289 290 290 286 283 281 279 278 275 268 264 260 260 260 258 256 253 247 244 241 242 242 247 264 270 278
289 289 288 289 291 290 290 289 289 289 286 285 282 280 280 274 266 261 261 257 257 250 244 242 240 238 237 234 249 261 265 278
285 288 289 288 288 288 290 289 289 288 287 286 285 282 280 276 269 263 257 255 250 238 235 232 232 240 228 225 244 254 266 273
283 284 284 285 283 285 287 288 290 289 287 286 284 283 280 277 271 264 258 252 242 236 234 231 233 239 223 228 240 256 266 274
281 282 283 281 279 281 283 285 287 287 287 287 284 282 279 277 272 265 258 248 237 234 233 229 234 237 219 223 241 259 269 281